Regional Weather Roundup
Issued by NWS Upton, NY

Current Version | Previous Version | Text Only | Print | Product List | Glossary Off
Versions: 1 2 3 4 5 6 7 8 9 10 11 12 13 14 15 16 17 18 19 20 21 22 23 24 25 26 27

000
ASUS41 KOKX 290504
RWROKX

REGIONAL WEATHER ROUNDUP
NATIONAL WEATHER SERVICE NEW YORK NY
100 AM EDT FRI APR 29 2016

NOTE: "FAIR" INDICATES FEW OR NO CLOUDS BELOW 12,000 FEET WITH NO
SIGNIFICANT WEATHER AND/OR OBSTRUCTIONS TO VISIBILITY.

NYZ071-072-176-178-NJZ106-104-290600-
NEW YORK CITY METRO AREA


CITY           SKY/WX    TMP DP  RH WIND       PRES   REMARKS
CENTRAL PARK   CLOUDY    49  38  65 CALM      30.08R
LAGUARDIA APRT CLOUDY    49  38  65 CALM      30.06R
KENNEDY INTL   CLOUDY    49  36  61 CALM      30.08R
NEWARK/LIBERTY CLOUDY    49  38  65 CALM      30.06S
BRNX BOT. GARD   N/A     48  36  61 SE3       30.07R
TETERBORO      CLOUDY    49  37  63 SW3       30.05S
$$

NYZ177-179-078>081-290600-
LONG ISLAND NEW YORK

CITY           SKY/WX    TMP DP  RH WIND       PRES   REMARKS
FARMINGDALE    CLOUDY    49  36  61 SE3       30.07R
ISLIP          CLOUDY    48  37  65 E3        30.06S
SHIRLEY        CLOUDY    48  37  65 CALM      30.07S
RIVERHEAD        N/A     48  37  66 SE2       30.07S
WESTHAMPTON    CLOUDY    45  36  70 E3        30.08S
EAST HAMPTON   CLOUDY    46  35  65 E5        30.07S
MONTAUK POINT    N/A     46  36  68 E5        30.09S
$$

NYZ052-065-067-290600-
HUDSON VALLEY

CITY           SKY/WX    TMP DP  RH WIND       PRES   REMARKS
WHITE PLAINS   CLOUDY    45  39  79 CALM      30.05S
NEWBURGH       CLOUDY    48  41  76 CALM      30.05S
MONTGOMERY     CLOUDY    48  41  76 CALM      30.04S
POUGHKEEPSIE   CLOUDY    50  41  71 CALM      30.04S
ALBANY         MOCLDY    40  18  41 N14       30.09R WCI  32
$$

NJZ001-105-106-008-010-013-015-019>022-104-290600-
NEW JERSEY

CITY           SKY/WX    TMP DP  RH WIND       PRES   REMARKS
NEWARK/LIBERTY CLOUDY    49  38  65 CALM      30.06S
TETERBORO      CLOUDY    49  37  63 SW3       30.05S
CALDWELL       CLOUDY    47  39  74 CALM      30.05F
MORRISTOWN     CLOUDY    46  39  76 CALM      30.05F
SOMERVILLE     CLOUDY    45  40  82 CALM      30.04F
SUSSEX         CLOUDY    47  43  86 CALM      30.05S
ANDOVER          N/A     46  40  79 CALM      30.04F
TRENTON        CLOUDY    44  41  89 NE5       30.04F
MILLVILLE      CLOUDY    45  43  93 NE8       30.02F FOG
ATLANTIC CITY  CLOUDY    46  45  96 NE7       30.02F FOG
WRIGHTSTOWN    NOT AVBL
TOMS RIVER     CLOUDY    43  39  87 NE5       30.05F
BELMAR         CLOUDY    44  42  93 N5        30.06S
$$

PAZ047>061-062-071-290600-
EASTERN PENNSYLVANIA

CITY           SKY/WX    TMP DP  RH WIND       PRES   REMARKS
PHILADELPHIA   CLOUDY    45  41  86 NE10      30.05F
ALLENTOWN      CLOUDY    46  41  82 E3        30.04F
SCRANTON       CLOUDY    46  43  89 CALM      30.02S
$$

CTZ002-004>006-009-010-012-RIZ004-006-007-MAZ004-011-015-290600-
SOUTHERN NEW ENGLAND
 IN CT

CITY           SKY/WX    TMP DP  RH WIND       PRES   REMARKS
BRADLEY INTL   CLOUDY    47  36  65 S9        30.06S
HARTFORD       CLOUDY    48  38  68 S7        30.08S
DANBURY        CLOUDY    45  40  82 SE3       30.07R
WTRBRY/OXFORD    N/A     45  37  76 CALM      30.08R
BRIDGEPORT     LGT RAIN  49  39  68 SE5       30.08R
MERIDEN        CLOUDY    47  40  76 NW3       30.09R
NEW HAVEN      CLOUDY    48  38  68 SE5       30.08R
CHESTER        FAIR      45  41  87 CALM      30.07R
GROTON         CLOUDY    47  40  76 SE7       30.08S
WILLIMANTIC    LGT RAIN  47  37  68 SE6       30.08S

 IN RI

CITY           SKY/WX    TMP DP  RH WIND       PRES   REMARKS
PROVIDENCE     LGT RAIN  45  34  65 SE5       30.10S
BLOCK ISLAND   LGT RAIN  45  38  76 E7        30.09S
WESTERLY       CLOUDY    47  34  60 VRB3      30.09S

 IN MA

CITY           SKY/WX    TMP DP  RH WIND       PRES   REMARKS
BOSTON         CLOUDY    46  34  62 SE7       30.11S
WORCESTER      CLOUDY    43  30  60 SE3       30.07S
WESTFIELD      CLOUDY    47  36  65 S5        30.07R
PROVINCETOWN   CLOUDY    44  36  73 SE3       30.13S
NANTUCKET      CLOUDY    45  35  68 E5        30.11S
$$

ANZ330-335-338-340-345-350-353-355-290600-
COASTAL MARINE OBSERVATIONS


STATION/POSITION TIME  SKY/WX   TEMP    WIND        PRES    VSBY  WAVE
                                AIR SEA DIR/SP/G                  HT/PER
                 (UTC)          (F)     (DEG/KT/KT) (MB)    (MI)  (FT/S)
NY HARB ENTRANCE 0350            47 51  120/  6/  8 1017.2          2/ 4
20S FIRE ISLAND  0350            47 48   90/  8/ 10 1017.2          3/ 6
GREAT SOUTH BAY  0400            49 58  120/  8/  8   N/A
23 SSW MONTAUK P 0450            47 47  100/ 10/ 12 1017.6          3/ 7
15 E BARNEGAT LI 0422               51                N/A           4/ 6
HUDSON CANYON    0350            49 49              1016.2          3/ 6
KINGS POINT      0400            49 53              1017.5
EXECUTION ROCKS  NOT AVBL
CENTRAL LI SOUND 0415            48     120/  8/ 10   N/A           0
EASTERN LI SOUND 0400            47 48  110/  6/  8   N/A
ROBBINS REEF     0400            48     190/  3/  4 1017.2
$$


>>>>>>>>>>>>>>>>>>>>>>>>>>>> KEY <<<<<<<<<<<<<<<<<<<<<<<<<<<
>                                                          <
>     SKY/WX - SKY CONDITION/PRESENT WEATHER               <
>     TMP    - TEMPERATURE IN FAHRENHEIT                   <
>     DP     - DEWPOINT IN FAHRENHEIT                      <
>     RH     - RELATIVE HUMIDITY IN PERCENT                <
>     WIND   - DIRECTION AND SPEED IN MPH                  <
>     PRES   - MEAN SEA LEVEL PRESSURE IN INCHES OF HG     <
>     WCI    - WIND CHILL INDEX                            <
>     VSB    - VISIBILITY IN MILES                         <
>     HX     - HEAT INDEX                                  <
>     TC     - TEMPERATURE IN CELSIUS                      <
>     VRB    - VARIABLE WIND DIRECTION                     <
>                                                          <
>>>>>>>>>>>>>>>>>>>>>>>>>>>> KEY <<<<<<<<<<<<<<<<<<<<<<<<<<<






USA.gov is the U.S. government's official web portal to all federal, state and local government web resources and services.